Regional Weather Roundup
Issued by NWS

Home | Current Version | Previous Version | Text Only | Print | Product List | Glossary Off
Versions: 1 2 3 4 5 6 7 8 9 10 11 12 13 14 15 16 17 18 19 20 21 22 23 24 25 26 27 28 29 30 31 32 33 34 35 36 37 38 39 40 41 42 43 44 45 46 47 48 49 50

000
ASUS43 KLOT 101908
RWRIL

ILLINOIS REGIONAL WEATHER ROUNDUP
NATIONAL WEATHER SERVICE CHICAGO/ROMEOVILLE IL
100 PM CST SUN DEC 10 2017

NOTE: "FAIR" INDICATES FEW OR NO CLOUDS BELOW 12,000 FEET WITH NO
SIGNIFICANT WEATHER AND/OR OBSTRUCTIONS TO VISIBILITY.

* THESE STATIONS ARE NOT UNDER NWS QUALITY CONTROL. THEY ALSO MAY NOT
  REPORT WEATHER SUCH AS PRECIPITATION OR FOG.

ILZ001-002-007-009-015-016-024-102000-
NORTHWEST ILLINOIS

CITY           SKY/WX    TMP DP  RH WIND       PRES   REMARKS
MOLINE         SUNNY     40  24  53 NW15      29.95R
STERLING*      MOSUNNY   36  21  54 NW13G24   29.94R WCI  27
SAVANNA*       CLOUDY    33  22  64 NW12      29.95R WCI  25
$$

ILZ003-004-008-010-011-017-018-102000-
NORTH CENTRAL ILLINOIS

CITY           SKY/WX    TMP DP  RH WIND       PRES   REMARKS
ROCKFORD       CLOUDY    31  20  63 NW13      29.93R WCI  21
FREEPORT*      CLOUDY    31  21  65 NW12      29.94R WCI  22
ROCHELLE*      MOSUNNY   33  22  63 NW12G17   29.91R WCI  25
DE KALB*       MOSUNNY   33  21  61 NW14      29.89S WCI  24
PERU*          SUNNY     35  21  55 W12G18    29.91S WCI  27
$$

ILZ005-006-012>014-019>023-102000-
NORTHEAST ILLINOIS

CITY           SKY/WX    TMP DP  RH WIND       PRES   REMARKS
CHICAGO-OHARE  PTSUNNY   34  20  56 NW13      29.87S WCI  25
CHICAGO-MIDWAY MOSUNNY   34  21  59 W14       29.88S WCI  25
AURORA         SUNNY     35  21  56 NW15      29.89R WCI  25
LANSING*       SUNNY     35  24  64 W10       29.88S WCI  27
WAUKEGAN       CLOUDY    29  20  69 W10       29.88R WCI  20
DUPAGE AIRPORT SUNNY     34  22  61 W10       29.87S WCI  26
KANKAKEE*      SUNNY     37  20  49 W18       29.89S WCI  27
WHEELING       CLOUDY    32  21  64 NW8       29.89S WCI  25
MORRIS*        SUNNY     36  21  53 W16       29.89R WCI  27
ROMEOVILLE*    SUNNY     35  21  57 W13       29.88S WCI  26
NORTHERLY ISL    N/A     34  20  57 W6          N/A  WCI  29
$$

LMZ740>746-102000-
SOUTHERN LAKE MICHIGAN

STATION/POSITION SKY/WX   TEMP    WIND        PRES    VSBY  WAVE
                          AIR SEA DIR/SP/G                  HT/PER
                          (F)     (DEG/KT/KT) (MB)    (MI)  (FT/S)
HARRISON CRIB              32     300/ 12/ 13   N/A
BURNHAM HARBOR             33     310/ 10/ 13   N/A
CALUMET HARBOR             34     270/  7/ 14 1011.2R
BURNS HARBOR               34     260/ 14/ 19 1012.2F
MICHIGAN CITY              32     250/ 20/ 22   N/A
$$

ILZ025>027-034>036-040-047-049-050-058-095>099-102000-
WEST-CENTRAL ILLINOIS

CITY           SKY/WX    TMP DP  RH WIND       PRES   REMARKS
QUINCY         SUNNY     44  24  45 W18       29.99S
GALESBURG*     SUNNY     39  27  60 NW14G25   29.95S WCI  31
MACOMB*        SUNNY     42  25  52 NW18      29.98S
JACKSONVILLE*  SUNNY     43  24  46 W17       29.97S
PITTSFIELD*    SUNNY     44  26  48 W16       30.00R
$$

ILZ028>032-037-038-041>044-048-051>054-059>061-102000-
CENTRAL ILLINOIS

CITY           SKY/WX    TMP DP  RH WIND       PRES   REMARKS
PONTIAC        SUNNY     38  22  52 W17       29.90S WCI  28
BLOOMINGTON    SUNNY     38  21  50 W16       29.91F WCI  29
DECATUR        SUNNY     41  22  46 SW16      29.93S
PEORIA         SUNNY     39  23  52 NW13G24   29.94S WCI  31
LACON*         SUNNY     38  23  53 W10       29.92R WCI  32
LINCOLN*       SUNNY     41  25  52 W10       29.94F
SPRINGFIELD    SUNNY     44  24  45 W12       29.96S
TAYLORVILLE    SUNNY     41  23  47 W13G20    29.97R
$$

ILZ033-039-045-046-055>057-062-063-102000-
EAST-CENTRAL ILLINOIS

CITY           SKY/WX    TMP DP  RH WIND       PRES   REMARKS
CHAMPAIGN      SUNNY     40  21  46 W20G31    29.92F
DANVILLE*      SUNNY     39  22  49 SW23G30   29.88F WCI  28
RANTOUL*       SUNNY     41  24  50 W17       29.91F
MATTOON        MOSUNNY   39  23  52 SW15G22   29.96R WCI  31
PARIS*         MOSUNNY   38  23  54 SW21G28   29.97R WCI  28
$$

ILZ079-100>102-102000-
SOUTHWEST ILLINOIS

CITY           SKY/WX    TMP DP  RH WIND       PRES   REMARKS
ALTON          MOSUNNY   45  27  49 W13       29.99F
BELLEVILLE     PTSUNNY   48  23  38 SW14      29.97F
CAHOKIA*       CLOUDY    47  22  37 W8        29.99F
$$

ILZ064>066-069>071-074>076-080>082-084>086-088>090-092>094-102000-
SOUTH-CENTRAL ILLINOIS

CITY           SKY/WX    TMP DP  RH WIND       PRES   REMARKS
CARBONDALE     SUNNY     46  24  42 SW17G25   30.03F
CAIRO*         SUNNY     46  28  49 SW14G26   30.10F
EFFINGHAM*     MOSUNNY   41  24  51 SW15G25   29.98F
MARION         PTSUNNY   46  23  39 SW17G25   30.04F
MT. VERNON     CLOUDY    42  24  49 SW18      30.00F
CENTRALIA*     CLOUDY    44  26  50 SW14      29.99F
SALEM*         PTSUNNY   44  23  44 SW18      29.99F
METROPOLIS*    SUNNY     47  24  40 SW20G25   30.09F
$$

ILZ067-068-072-073-078-083-087-091-102000-
SOUTHEAST ILLINOIS

CITY           SKY/WX    TMP DP  RH WIND       PRES   REMARKS
LAWRENCEVILLE  MOSUNNY   41  23  48 SW23G29   30.01F
FLORA*         CLOUDY    45  25  45 SW17      29.99F
FAIRFIELD*     CLOUDY    42  24  49 S8        30.00F
HARRISBURG*    SUNNY     45  26  46 SW21G26   30.05F
ROBINSON*      MOSUNNY   38  23  53 SW18      29.98F WCI  29
CARMI*         PTSUNNY   43  24  47 SW13G23   30.03F
$$

ABBREVIATIONS USED IN REMARKS
   TC - TEMPERATURE IN CELSIUS
  WCI - WIND CHILL INDEX
   HX - HEAT INDEX
  VSB - VISIBILITY
$$





USA.gov is the U.S. government's official web portal to all federal, state and local government web resources and services.